Location: *
(34.0000°S, 64.0000°W)
Time: 23:24:50
(UTC+00:00)

Daily predictions for brighter satellites

Satellite Brightness Start Highest point End
(mag) Time Altitude Azimuth Time Altitude Azimuth Time Altitude Azimuth
Iridium 4 Rocket 4.3 23:39:50 10° SSE 23:45:14 42° E 23:50:48 10° NNE
GPS 2-04 Rocket1 2.3 23:43:00 10° WNW 23:46:33 76° NNE 23:50:01 10° E
Cosmos 389 Rocket 3.5 23:44:00 10° SSE 23:47:14 30° ESE 23:50:26 10° NE
NOAA 11 4.2 23:42:38 10° SSE 23:48:07 68° E 23:53:31 10° N
Okean 2 3.5 23:49:58 10° S 23:54:10 61° E 23:58:18 10° NNE
